Theta_e
295 294 294 294 294 294 294 295 296 297 300 303 305 306 309 315 318 319 318 318 318 317 317 318 319 320 320 320 320 319 319 320 319 318 317 317 317 316 312 309 308 308 306 304 306 305 299 296 299 300 300 302 302 301 300 301 302 301 300 299 300 303 306 307 307 306 303 302 303 304 304 303 302 301 301 302 302 302 301 300 299 299 298 297 297
295 294 294 294 293 294 294 295 295 295 297 300 303 305 307 312 317 318 317 318 318 318 317 317 318 320 320 320 320 319 319 319 319 318 317 316 317 315 312 311 310 310 309 305 305 306 300 296 298 299 299 299 301 301 300 301 302 302 301 301 302 304 305 305 306 306 306 304 303 303 302 301 301 301 301 301 301 300 299 297 297 296 296 295 295
295 294 294 294 293 293 294 294 295 295 296 298 300 303 306 309 315 317 317 317 318 318 317 317 318 319 319 319 320 319 319 319 319 319 318 317 317 315 313 314 314 313 313 311 310 311 306 299 296 297 298 298 299 300 300 300 301 302 301 301 302 302 303 304 304 306 308 306 302 301 301 300 300 301 300 299 299 297 296 295 295 295 294 294 294
295 294 293 294 293 293 293 294 295 294 295 296 298 301 304 306 311 317 318 317 318 318 317 317 317 317 318 318 319 319 319 319 318 319 318 317 317 315 315 315 315 315 316 315 314 315 313 309 303 298 296 298 298 299 299 299 300 302 302 301 302 302 302 303 303 304 307 307 303 300 301 301 300 300 299 297 295 294 294 294 294 294 294 294 294
294 293 293 294 293 293 293 294 294 294 294 295 296 299 302 303 308 315 318 317 317 318 317 318 317 316 316 317 318 318 318 318 318 318 319 318 316 316 316 316 315 316 317 317 316 316 316 315 313 305 298 296 297 298 298 299 300 300 300 300 301 301 301 302 302 303 305 307 304 301 300 300 300 299 297 295 294 293 293 294 294 294 294 294 293
294 293 293 293 293 293 293 293 294 294 294 294 295 297 300 302 304 312 318 317 317 317 318 318 318 317 316 317 318 318 319 319 318 318 318 318 316 316 316 316 316 316 317 316 316 316 316 315 316 313 304 297 296 297 297 297 298 298 297 299 301 300 301 303 303 304 305 305 304 302 300 300 299 297 295 294 293 294 294 293 293 293 293 293 293
293 293 293 293 293 293 292 292 293 294 294 294 294 296 299 301 302 308 315 317 316 317 317 318 318 318 318 318 317 317 317 318 318 317 318 318 317 316 316 316 316 316 317 316 316 316 316 315 315 316 313 305 298 296 297 297 297 296 296 299 300 300 301 304 305 306 304 303 303 303 302 300 298 295 294 293 293 293 294 294 293 293 293 292 292
293 293 293 293 293 292 292 291 292 293 294 294 294 295 297 300 302 305 313 317 315 316 317 317 317 318 318 318 317 316 316 317 318 318 318 318 317 316 317 317 316 316 317 317 316 316 316 316 315 316 316 313 305 298 296 297 296 296 298 300 301 300 300 303 307 307 304 302 302 303 302 300 296 294 294 293 293 293 293 294 294 293 292 292 292
292 293 293 293 292 292 291 291 291 293 294 293 293 295 296 299 301 303 309 315 316 316 317 316 316 317 318 318 318 317 316 316 317 317 317 318 318 316 316 317 316 316 317 316 316 316 316 316 315 315 315 315 312 303 296 296 297 297 300 303 302 299 298 302 307 306 302 301 302 302 301 299 296 295 294 294 295 294 294 293 293 293 292 292 292
290 291 291 291 291 291 290 290 291 293 294 293 293 294 296 298 301 302 306 313 316 316 317 316 316 317 317 317 318 317 317 316 315 314 315 316 317 317 316 317 316 317 317 317 317 317 316 316 315 314 314 314 315 310 300 296 296 297 301 306 305 301 299 303 307 305 301 301 302 302 301 299 297 296 295 295 296 295 294 293 293 293 292 292 291
287 288 289 289 290 290 289 290 292 293 294 293 293 294 296 297 300 301 304 311 315 316 316 317 316 317 317 317 317 316 316 316 314 313 314 315 317 317 317 317 317 316 317 317 317 316 316 316 315 314 314 314 315 314 308 302 297 296 300 305 308 306 304 306 308 305 300 300 301 301 301 300 297 296 295 295 295 295 294 294 293 293 292 292 291
285 287 288 288 288 288 289 290 292 293 293 292 293 294 296 297 299 301 303 309 314 315 316 316 316 317 316 315 316 316 315 316 316 314 314 314 315 316 316 317 317 317 317 317 317 316 316 316 315 315 315 314 314 315 313 309 301 296 298 302 306 307 307 309 311 307 301 300 301 300 300 299 297 296 296 296 295 294 294 293 293 293 293 292 292
284 285 287 287 288 288 290 291 293 293 292 292 293 295 296 297 299 301 303 308 313 314 315 316 316 316 315 315 316 316 315 316 316 316 315 314 314 314 315 316 317 317 317 317 317 316 316 316 316 315 314 314 314 314 314 312 304 297 297 300 302 305 308 310 312 309 304 301 301 300 299 298 297 297 297 297 296 294 294 293 293 293 293 292 292
283 284 286 287 288 289 291 292 292 291 291 292 293 295 296 297 299 301 303 306 312 314 314 315 315 315 315 315 315 315 315 314 314 314 314 314 314 315 315 315 316 317 318 317 317 317 316 317 316 315 314 314 313 313 314 313 307 299 297 299 301 304 308 311 311 309 304 302 301 299 298 297 297 297 297 297 296 296 295 294 294 293 292 292 292
281 283 284 286 288 289 290 291 291 291 292 292 293 295 296 296 298 302 302 305 310 313 313 314 315 315 315 315 314 314 314 314 313 313 314 313 313 314 314 314 315 317 318 317 317 316 316 317 316 315 314 314 314 313 313 314 309 302 299 300 301 305 309 311 311 308 304 301 299 298 297 297 297 297 297 297 297 296 295 295 294 293 292 291 291
281 282 284 286 287 289 289 290 290 291 292 293 293 295 296 296 298 302 302 304 308 312 313 313 313 314 314 314 314 314 313 313 313 313 313 313 312 313 313 313 313 316 317 317 316 316 316 317 317 316 315 314 314 313 313 313 310 304 302 303 305 307 309 311 310 307 304 300 298 297 297 297 297 297 297 297 296 295 294 294 293 292 292 291 291
280 281 283 285 287 288 289 289 290 292 292 293 294 295 296 296 298 301 302 303 308 311 312 313 313 313 313 313 314 314 313 312 312 313 313 312 312 312 312 312 312 314 316 317 317 317 317 317 317 317 315 314 314 313 313 313 311 306 304 306 308 308 310 310 308 305 302 299 297 296 296 297 297 297 296 296 295 295 294 293 293 292 292 291 291
280 280 282 283 285 287 288 289 291 292 292 293 294 295 296 296 298 301 302 303 307 310 311 312 312 312 312 312 312 313 313 312 311 312 312 312 312 312 312 312 311 311 314 316 317 317 318 317 317 317 316 314 314 313 313 313 313 309 307 308 309 310 310 309 306 303 300 298 296 295 296 296 296 296 295 295 294 294 294 294 293 293 292 292 292
280 280 281 282 284 287 288 289 290 291 292 293 294 295 296 296 298 301 301 302 306 309 311 311 312 312 312 312 312 312 312 312 312 311 311 311 312 312 312 312 311 311 313 315 315 315 316 317 316 316 316 315 314 313 313 313 313 312 311 310 311 311 311 309 306 301 299 297 295 295 295 295 295 295 295 294 294 293 293 294 294 293 292 292 292
281 281 281 282 284 286 287 289 290 291 292 293 294 296 296 296 298 300 301 301 305 309 310 311 311 311 311 311 311 311 311 311 311 312 311 311 311 312 311 311 311 312 313 313 313 314 315 315 315 315 316 315 314 313 313 313 313 312 312 312 312 312 312 310 306 300 297 295 295 294 295 295 295 294 294 293 293 293 292 292 292 293 293 292 292
282 282 282 282 284 286 287 288 289 289 291 293 294 296 296 296 298 300 300 301 304 307 309 310 310 311 311 311 311 311 310 310 310 310 311 311 311 311 311 311 312 312 312 312 313 314 314 314 313 314 315 315 314 313 313 313 313 312 312 312 312 312 312 311 306 300 296 295 294 294 294 294 294 294 293 293 293 292 292 292 292 291 292 292 292
283 284 284 284 285 286 287 288 289 289 291 292 295 296 296 296 298 300 300 300 303 306 308 309 309 310 310 310 310 310 310 309 309 309 310 310 311 310 311 312 312 312 312 312 312 313 314 313 313 313 314 314 313 313 313 313 312 312 312 312 312 312 312 311 307 300 296 295 294 293 294 294 294 293 293 292 293 292 292 292 291 291 291 291 291
284 286 287 287 287 287 288 289 290 290 291 293 295 297 296 296 298 299 300 300 302 305 307 308 309 309 309 310 310 310 310 310 309 309 309 309 310 310 310 311 311 311 311 311 311 312 313 313 313 313 313 313 313 313 312 312 312 312 312 312 312 312 311 311 308 301 296 294 294 293 294 294 294 293 293 293 293 292 292 291 291 291 291 290 290
284 286 288 289 289 289 289 290 290 291 292 294 296 296 296 296 298 299 300 300 301 303 306 307 308 308 308 309 309 309 309 309 309 309 308 309 309 309 310 310 311 311 310 310 310 311 311 312 313 313 313 314 314 313 312 312 312 312 311 311 311 311 310 310 308 301 296 294 294 293 294 294 293 293 293 293 293 292 292 291 291 291 291 291 291
285 286 288 289 291 291 292 292 292 292 294 295 296 296 296 297 298 299 299 299 300 302 304 306 307 307 307 307 308 308 308 308 308 308 308 308 309 309 309 309 309 310 310 310 310 310 311 311 312 312 313 313 312 312 311 311 311 311 311 311 311 310 309 309 307 301 296 294 294 294 294 294 294 293 293 293 293 292 292 291 291 291 290 290 291
286 288 288 289 291 292 292 293 293 294 295 296 296 296 296 297 298 299 299 299 300 301 303 305 306 306 306 306 307 307 307 307 307 307 308 308 308 308 309 309 309 309 309 310 310 310 310 311 311 311 311 311 311 310 310 310 310 310 310 310 309 308 307 307 306 301 296 294 294 294 294 294 293 293 292 292 292 292 291 291 291 291 291 291 291
286 288 289 290 290 291 292 293 294 294 295 296 296 296 296 297 297 298 299 299 299 300 301 303 304 305 305 305 305 306 306 306 306 306 307 307 307 307 308 308 308 308 307 307 308 308 309 309 309 309 309 309 310 310 310 310 308 307 307 307 307 306 305 306 305 300 296 294 294 294 294 293 293 292 292 292 291 291 291 291 291 291 291 290 291
286 288 289 290 291 292 292 293 294 294 295 296 296 296 296 296 297 298 299 299 299 300 300 301 303 304 304 304 304 304 304 305 306 306 306 306 305 305 306 306 306 306 305 306 306 307 307 307 307 307 307 308 308 307 307 308 307 305 304 304 304 303 304 304 303 299 295 294 294 294 293 293 292 292 292 291 291 291 291 291 290 290 290 290 291
287 288 289 290 292 292 293 293 293 294 295 296 296 296 296 296 297 299 299 299 299 300 300 301 301 303 303 304 304 304 304 304 305 305 306 306 306 305 305 305 305 305 306 306 306 306 306 306 305 305 304 305 305 304 303 304 304 302 301 301 301 301 301 302 300 297 295 293 293 293 293 293 292 292 292 291 291 291 291 290 290 290 290 290 291
288 290 290 291 292 293 293 294 294 295 296 296 296 296 296 297 298 299 299 300 300 300 301 301 301 302 303 303 304 304 304 304 304 304 305 305 306 306 306 306 306 306 306 306 305 305 305 304 304 304 303 303 303 303 302 301 300 300 300 300 300 300 300 300 299 296 294 293 293 293 293 293 292 292 292 291 291 291 290 290 290 290 290 290 290
288 290 291 292 293 293 294 295 295 295 296 296 296 295 296 297 298 299 299 300 300 300 300 301 301 302 302 303 303 303 304 304 304 304 304 304 305 305 305 306 306 305 305 304 303 303 303 302 302 302 302 302 302 302 302 301 300 301 301 300 299 299 299 299 297 295 294 293 292 292 292 292 292 292 292 292 291 291 290 289 289 290 290 290 290
288 289 290 292 294 294 294 294 295 295 295 295 295 295 295 296 298 299 299 299 299 299 299 300 301 302 302 303 303 303 303 303 303 303 303 303 303 304 304 304 304 304 304 303 302 301 301 301 301 301 301 301 302 302 302 302 302 302 301 299 298 298 298 298 297 295 294 293 292 292 292 291 292 292 292 292 292 291 290 289 289 290 290 290 290
289 289 290 292 293 294 294 294 294 294 294 294 295 295 295 296 297 298 298 298 298 298 299 299 300 301 301 302 302 303 303 303 303 303 302 302 302 302 303 303 303 303 302 302 301 301 300 301 301 301 301 302 302 302 302 302 302 302 301 299 299 299 298 297 297 295 294 293 293 292 292 291 291 291 291 291 292 291 290 289 289 290 290 290 290
289 290 291 292 293 294 295 295 295 295 295 295 295 295 296 296 297 297 298 298 297 297 298 299 299 300 300 301 301 301 302 302 302 302 302 301 301 301 301 301 301 301 301 302 301 301 300 300 300 301 301 301 301 301 301 302 302 301 300 299 299 298 298 297 296 295 294 293 293 292 292 291 291 291 291 291 291 291 290 289 289 290 290 290 290
289 290 291 292 292 293 294 295 295 295 295 295 296 296 296 296 296 297 297 297 297 297 297 298 298 298 299 299 300 300 300 301 301 301 301 301 301 300 299 298 298 298 298 299 300 300 299 299 300 300 301 302 302 302 302 302 301 300 299 298 298 297 297 296 295 294 294 293 293 292 292 291 291 291 291 291 291 291 290 289 289 290 290 290 290
288 288 290 291 291 292 293 294 294 295 295 295 295 296 296 296 296 296 297 297 297 297 297 297 297 298 298 298 299 299 299 299 300 300 300 300 300 299 298 297 297 296 296 297 297 298 299 299 300 300 301 301 302 302 302 301 300 298 298 297 297 296 296 295 295 294 293 293 292 292 292 292 291 291 291 291 291 290 290 289 289 289 289 289 289
286 286 287 288 290 291 292 293 293 294 294 295 295 295 296 296 296 296 296 296 296 297 297 297 297 297 297 297 297 298 298 298 299 299 299 299 299 299 298 297 297 297 296 296 297 297 298 298 300 300 301 301 301 300 299 298 297 296 296 295 295 295 294 294 294 293 293 292 292 292 292 292 291 291 291 291 290 290 289 289 289 289 289 288 288
285 284 285 287 289 290 291 292 292 293 293 294 294 294 295 295 296 296 296 296 296 296 296 296 296 296 296 296 296 296 297 297 297 297 297 297 297 297 297 297 296 296 296 296 296 296 297 297 298 299 299 299 298 298 297 296 295 294 294 293 293 293 293 293 292 292 292 292 292 292 292 291 291 291 290 290 290 289 289 288 288 288 288 288 289
284 284 285 286 287 288 289 290 291 292 292 292 293 293 293 293 293 294 294 294 294 294 294 295 295 295 295 295 295 295 295 295 295 295 295 295 295 296 296 295 295 295 295 295 295 294 295 295 296 296 296 296 295 295 294 294 293 293 293 292 292 292 292 292 291 291 291 291 291 291 291 290 290 290 290 289 289 288 288 288 288 289 289 290 290
283 283 284 285 286 286 287 288 289 289 289 290 291 291 291 291 291 292 292 292 292 292 292 292 292 292 293 293 294 293 293 293 293 293 293 294 294 294 294 294 294 294 294 293 293 293 293 293 293 294 294 294 294 294 293 293 292 292 292 292 292 292 292 292 292 292 291 291 291 291 290 290 290 290 289 288 288 288 288 289 290 290 290 289 289
281 281 282 283 284 285 285 286 286 286 287 287 288 288 289 289 289 290 290 290 290 290 290 290 290 290 291 292 292 292 292 292 292 292 293 293 293 293 293 293 293 293 293 292 292 292 292 292 292 292 292 292 293 293 293 292 292 292 292 292 292 292 292 292 292 292 291 291 291 291 290 290 290 289 288 288 288 289 291 291 291 290 289 288 287
279 280 280 281 282 283 283 283 283 284 285 285 285 286 286 287 287 287 288 288 288 288 289 289 289 290 290 290 291 291 291 291 291 291 291 291 292 292 292 292 292 292 292 292 292 292 292 291 291 291 291 291 292 292 292 292 292 292 292 293 292 292 292 292 292 292 291 291 291 291 290 290 289 289 289 290 291 292 292 292 290 289 288 287 286
278 278 278 279 280 280 280 281 281 282 282 282 282 283 284 285 285 285 285 285 286 286 287 287 287 288 288 289 290 291 290 290 290 290 290 290 290 291 291 291 291 291 291 291 291 291 291 291 291 291 291 291 291 291 291 292 292 292 292 292 292 292 292 292 292 292 292 291 291 290 290 290 290 291 292 293 293 292 291 290 289 288 287 287 286
278 278 278 278 278 278 278 279 279 279 279 280 281 282 283 283 283 283 283 283 283 283 284 284 284 285 286 287 288 288 288 288 288 288 288 288 289 289 290 290 290 291 291 291 291 291 291 291 291 291 291 291 291 291 291 291 291 291 291 292 292 292 292 292 292 292 291 291 291 290 291 291 292 292 292 292 291 290 289 288 287 287 287 286 286
278 278 277 277 277 277 277 277 277 278 278 279 279 279 280 280 280 279 280 280 280 281 281 281 281 282 283 284 284 284 284 284 285 285 285 286 286 287 288 288 289 289 290 290 290 290 291 290 290 290 290 290 290 290 290 290 290 291 291 291 291 291 291 291 291 291 291 291 291 291 291 291 291 291 290 289 288 287 287 286 286 285 285 284 284
276 276 276 276 276 276 276 275 276 276 277 276 276 276 277 277 277 277 277 278 278 278 279 279 279 279 280 280 281 281 281 282 282 282 283 283 284 285 285 286 287 287 288 288 288 289 289 289 289 289 289 289 289 289 289 289 289 289 289 289 289 290 290 290 290 290 290 290 290 290 289 288 288 287 287 286 286 285 285 284 284 283 283 282 282
273 273 274 274 274 274 274 274 275 275 275 275 275 274 274 275 275 275 275 276 277 277 277 277 277 277 277 277 278 278 278 279 279 280 280 280 281 281 282 283 284 285 285 285 285 286 286 286 287 287 287 287 287 287 287 288 288 288 288 288 288 288 288 288 288 288 288 287 287 286 286 285 285 285 284 284 284 283 282 282 282 281 281 280 280
270 271 271 272 272 272 272 273 273 273 274 274 274 274 274 274 274 274 274 274 275 276 276 276 276 276 276 276 276 276 276 277 277 277 278 278 278 279 279 280 281 281 282 282 282 282 283 283 283 284 284 284 284 285 285 285 285 285 285 285 285 285 285 285 286 285 285 285 285 284 284 283 283 282 282 281 281 281 280 280 280 280 279 279 279
269 269 269 269 270 270 270 270 270 270 271 271 272 272 273 273 273 273 273 273 274 274 274 274 274 275 275 275 275 276 276 276 276 277 277 277 277 277 278 278 278 279 279 280 280 280 280 280 280 280 281 281 281 282 282 282 282 282 283 283 283 283 283 283 283 283 283 282 282 282 281 281 280 280 280 279 279 279 279 279 278 278 278 277 277
268 268 268 268 268 268 268 269 269 269 269 269 269 269 270 270 270 271 271 272 272 272 272 272 273 273 273 274 274 274 275 275 275 275 275 276 276 276 277 277 277 278 278 278 278 278 278 278 278 279 279 279 279 279 279 279 280 280 280 280 280 280 280 280 280 280 280 280 279 279 279 279 279 278 278 278 278 278 277 277 277 276 276 275 275
268 268 268 268 268 268 268 268 268 268 268 268 268 268 268 268 268 268 268 269 269 269 270 270 270 271 271 271 272 272 272 272 273 273 273 274 274 274 275 275 276 276 276 277 277 277 277 277 277 277 277 277 278 278 278 278 278 278 278 278 278 278 278 278 278 278 278 278 278 278 278 277 277 277 277 277 276 276 276 275 275 275 274 274 273
Wind_Speed
40 41 43 45 46 47 47 46 46 43 37 31 28 27 32 40 55 56 58 65 64 62 64 64 65 64 63 63 61 58 56 54 54 55 54 54 52 49 50 49 47 45 44 42 39 38 38 39 38 38 37 36 37 37 34 31 30 32 34 38 40 38 35 33 33 34 35 33 32 32 32 33 34 33 32 31 30 29 28 27 26 25 26 26 26
41 41 42 43 45 46 47 46 46 47 41 34 29 25 27 34 51 59 55 61 65 65 66 65 64 65 63 63 63 59 58 55 53 54 54 54 53 51 51 50 47 46 45 43 40 37 37 38 38 38 38 37 38 38 36 34 32 32 34 36 37 37 35 33 30 29 33 35 34 34 35 35 35 34 33 32 31 31 29 28 28 27 28 28 27
42 42 41 42 44 45 45 45 45 48 45 39 33 26 25 31 44 62 59 59 65 66 66 64 63 65 64 63 63 60 58 56 53 53 55 56 55 54 53 51 48 47 46 44 41 39 37 37 38 38 40 40 39 40 40 37 35 33 33 34 35 36 36 34 31 30 32 35 37 38 38 37 36 35 34 32 31 30 30 29 30 30 29 29 28
41 42 41 40 42 43 44 44 44 47 47 43 39 30 24 29 34 55 62 60 63 64 64 64 62 63 64 63 62 61 59 57 55 54 55 57 58 57 55 52 50 48 46 45 43 42 40 38 37 39 41 42 42 43 44 42 40 36 34 34 36 36 36 35 34 32 33 35 39 40 40 39 38 36 35 33 31 31 31 31 31 31 30 29 28
40 42 40 38 40 41 41 44 44 45 48 45 43 36 26 26 31 45 59 58 62 65 64 66 63 60 63 63 62 63 62 59 57 55 54 57 59 59 56 52 51 50 48 46 44 43 41 39 38 39 42 44 44 45 47 47 45 41 37 36 36 37 36 36 36 34 33 35 39 41 41 40 39 37 36 35 34 34 33 32 32 32 31 29 27
41 43 40 37 39 41 40 43 45 45 48 47 45 42 31 24 28 38 53 53 57 64 64 65 64 61 65 66 62 64 66 62 58 56 56 56 58 59 57 54 53 53 50 48 47 45 44 43 42 41 43 45 47 47 49 50 49 46 42 39 38 39 38 38 38 35 34 36 40 42 43 42 41 39 38 37 37 37 36 35 34 32 30 29 28
42 43 40 37 38 41 41 44 47 45 46 49 46 43 36 27 25 32 50 54 54 61 64 63 65 65 66 65 58 58 64 65 60 58 57 57 59 61 61 58 57 55 52 49 48 47 46 45 45 44 43 45 47 49 50 50 50 49 46 43 41 41 41 41 39 37 36 39 42 44 45 44 42 41 40 39 37 37 38 37 36 34 32 31 30
44 43 40 40 41 43 45 47 50 47 46 49 47 43 38 29 24 27 44 57 55 57 62 64 67 68 65 62 57 57 62 64 63 61 59 59 61 64 65 62 60 59 54 51 50 49 48 47 46 45 44 44 47 49 50 51 51 51 48 45 44 44 44 43 41 39 39 41 44 46 47 47 45 43 42 42 41 40 39 39 37 36 35 33 31
43 40 40 43 45 47 50 52 51 47 46 49 47 42 39 30 24 25 36 55 58 55 59 62 63 64 63 60 59 61 65 63 59 58 60 61 62 66 68 65 62 60 57 54 52 51 50 49 45 42 42 43 45 47 49 51 52 52 51 48 47 47 46 45 43 42 43 45 47 49 50 50 49 48 47 47 47 45 42 39 37 37 36 34 31
49 48 50 54 55 54 55 55 50 46 46 48 47 41 38 32 24 25 31 49 59 56 57 59 58 60 62 60 60 63 66 63 55 53 58 62 62 65 68 67 64 62 60 57 54 53 53 51 46 43 42 43 45 46 47 49 51 52 52 50 49 49 48 46 45 45 46 48 50 51 52 52 52 51 51 50 49 47 44 42 41 39 37 35 32
56 59 59 60 60 59 59 54 48 45 46 48 46 39 37 34 25 24 30 44 57 58 57 57 56 59 62 64 65 66 67 62 52 48 54 61 63 64 68 68 66 64 63 59 56 55 56 55 51 47 46 46 45 45 46 47 49 50 52 51 49 49 49 49 48 49 50 50 51 52 53 53 53 52 52 50 49 48 46 45 44 42 40 39 37
54 57 59 61 63 61 56 49 44 44 47 47 43 37 35 35 27 23 31 41 52 56 58 57 55 58 61 63 64 64 65 64 55 49 52 58 63 65 66 68 67 65 64 61 58 56 56 57 54 51 50 47 45 45 46 47 48 49 51 50 48 47 47 47 47 50 53 53 52 53 52 53 53 53 52 51 50 48 46 45 44 43 42 41 39
48 50 52 54 55 50 45 41 41 45 47 44 38 35 34 34 29 24 30 41 48 51 54 55 53 54 55 56 58 57 58 62 61 58 57 57 59 62 64 66 67 66 64 62 58 56 56 56 55 54 51 47 44 44 45 47 48 49 49 49 47 46 46 45 45 48 53 55 54 53 52 52 52 52 51 51 50 49 47 46 45 44 42 41 39
45 46 44 41 39 37 37 39 42 45 44 38 35 35 34 33 30 25 29 39 47 48 51 55 55 54 53 52 56 58 57 57 57 58 61 60 58 58 61 64 67 68 66 63 60 57 57 57 58 57 54 49 46 45 45 47 49 49 50 49 47 47 47 46 47 48 51 53 53 53 52 51 50 50 50 50 50 48 48 48 47 45 42 40 36
43 46 46 44 41 40 39 42 44 42 38 36 34 34 32 32 29 26 28 37 47 48 47 51 53 54 54 52 53 57 60 61 57 53 56 60 60 59 61 64 67 69 67 63 59 57 57 58 59 60 58 53 49 46 46 48 50 51 51 50 49 49 48 47 49 52 52 52 52 52 51 49 48 48 48 49 48 47 47 47 46 44 42 39 37
41 42 43 43 43 44 44 43 42 37 35 35 34 32 31 32 27 25 29 37 48 50 47 48 47 47 50 52 51 51 53 58 60 56 53 53 54 57 62 64 67 70 68 64 59 57 57 57 58 61 61 55 50 48 47 47 51 52 52 51 50 51 49 48 50 53 53 51 51 52 50 48 48 48 47 47 47 46 46 45 45 44 42 40 38
40 40 40 38 37 38 38 37 35 35 36 34 31 30 31 30 26 25 29 37 49 51 49 50 48 45 46 49 52 53 51 52 55 57 57 52 49 53 60 65 67 69 69 66 63 61 59 56 56 60 61 56 52 50 47 46 50 53 52 52 52 51 49 48 49 51 52 51 51 52 51 49 48 48 47 46 46 47 47 47 47 46 44 43 41
41 40 40 38 35 34 33 34 35 36 35 31 29 30 30 28 25 25 29 38 49 51 49 50 48 46 46 47 49 55 57 55 52 52 55 56 52 52 58 64 67 66 65 65 65 63 61 57 55 58 60 57 53 51 47 45 50 54 54 53 54 53 51 50 51 52 52 52 53 54 53 52 50 49 48 46 46 47 47 48 48 48 47 46 44
43 41 39 35 35 33 32 34 36 36 34 31 29 29 28 27 24 24 29 37 47 50 48 48 48 46 47 46 46 49 54 58 58 55 54 54 56 58 59 63 66 64 60 60 62 62 60 59 58 58 59 58 55 53 50 46 48 54 55 54 55 54 52 52 54 55 56 56 56 57 57 55 52 51 49 47 46 47 47 48 48 49 49 48 45
44 41 38 33 33 33 32 34 35 34 33 32 29 27 27 26 22 23 28 35 45 48 46 47 47 47 46 47 47 47 47 51 57 60 58 56 56 60 62 63 64 63 59 58 60 60 59 59 60 60 59 59 58 56 53 48 47 52 57 57 57 55 53 53 56 58 59 58 58 58 58 57 54 52 50 49 47 47 48 48 47 47 48 48 46
43 40 35 30 29 31 32 35 36 35 34 32 29 27 26 25 21 22 26 34 44 47 46 46 47 47 47 47 47 48 47 46 48 54 60 60 59 60 63 63 62 60 59 60 61 61 59 59 61 62 61 60 60 56 54 51 48 51 58 60 58 55 53 55 57 58 58 59 58 59 59 58 56 53 51 50 49 50 51 50 48 46 46 46 44
42 36 30 26 27 28 28 30 34 35 34 31 28 26 25 24 21 21 25 33 42 46 45 45 46 47 47 47 47 48 49 48 46 48 53 58 58 58 61 61 59 57 59 62 63 63 61 59 60 61 59 58 59 56 54 53 50 51 57 60 57 55 53 54 57 59 59 60 60 60 61 59 57 55 53 52 52 52 53 51 49 47 45 42 40
41 35 27 24 26 28 29 30 33 35 33 28 26 25 24 24 21 20 24 32 41 45 45 44 45 46 47 48 48 48 50 51 50 47 49 53 55 54 55 56 55 55 57 60 61 61 60 58 57 58 55 54 57 57 55 54 52 52 56 59 57 55 53 54 58 62 62 62 62 63 63 61 59 58 56 55 55 55 54 51 49 48 46 43 40
37 35 30 25 23 25 27 29 31 32 29 25 24 24 23 24 21 20 25 31 39 45 45 45 45 46 47 49 49 49 51 52 52 50 48 50 54 55 55 54 53 52 53 54 55 56 56 56 56 56 53 53 58 59 57 55 54 54 57 59 57 54 54 56 61 64 65 65 64 64 64 64 62 61 59 58 57 56 54 50 48 47 46 45 43
31 29 29 28 25 23 23 23 24 25 22 21 22 23 23 24 22 20 24 30 38 44 45 45 46 47 48 49 49 50 51 52 53 52 50 49 51 53 54 53 52 51 52 54 54 55 56 57 57 56 54 54 57 59 56 55 54 54 57 58 56 55 56 60 63 66 67 67 67 66 66 65 63 61 60 59 58 56 53 50 48 47 47 45 44
30 25 24 25 25 24 23 23 22 21 20 20 22 23 23 23 22 21 25 30 36 42 44 45 46 47 47 48 49 49 50 51 52 52 52 51 51 51 51 50 51 52 54 54 54 54 54 54 53 52 51 52 56 57 56 55 55 56 57 57 56 56 59 63 65 68 69 69 68 67 67 65 63 62 60 58 57 54 52 51 49 49 49 48 46
30 26 24 22 22 23 23 23 23 22 20 21 23 23 23 23 22 22 26 31 36 40 43 44 46 47 47 47 47 48 49 50 50 51 51 52 53 52 51 51 51 53 55 54 53 51 50 48 47 47 49 51 55 57 57 56 57 58 58 56 56 58 61 64 66 68 69 69 68 67 66 65 64 62 60 57 54 52 51 50 50 52 52 50 48
28 27 25 24 23 23 22 23 23 23 22 23 24 24 24 24 24 24 27 32 36 40 42 43 45 46 46 46 45 46 47 48 49 50 50 51 52 52 53 53 54 55 55 54 52 50 48 47 47 49 51 54 57 58 59 58 59 60 59 57 57 58 60 62 63 64 65 65 66 66 66 65 64 62 59 56 53 51 50 49 50 52 51 49 47
27 26 25 24 25 24 24 25 24 24 24 24 25 26 25 25 24 24 28 32 36 38 40 41 43 44 44 44 45 46 47 48 48 47 45 45 47 50 52 54 56 56 55 53 52 51 50 50 51 52 54 57 59 60 60 60 60 60 60 58 58 58 59 60 61 61 62 62 62 64 64 64 62 61 58 55 52 50 48 48 49 49 49 48 48
26 24 24 24 24 24 24 24 24 25 25 25 26 28 27 25 24 24 28 31 34 37 38 39 40 41 42 43 44 44 45 44 43 42 41 40 42 46 50 52 53 54 54 53 53 53 54 53 54 55 56 58 60 61 60 60 60 61 59 58 58 59 60 61 61 61 61 60 61 62 63 63 62 60 58 54 51 48 47 47 48 49 49 49 49
28 27 26 24 22 21 22 22 21 23 25 25 26 27 27 25 23 23 26 29 31 35 36 37 38 39 40 41 41 40 40 39 37 37 38 39 39 42 47 51 52 53 54 54 53 53 54 54 55 56 57 59 61 61 61 61 61 60 59 59 60 61 62 61 61 60 59 59 59 59 60 61 60 59 57 54 51 49 48 48 49 50 50 49 49
29 30 29 25 21 19 19 19 19 19 21 22 23 24 25 25 24 23 24 26 28 32 35 36 37 37 38 38 38 38 38 37 36 35 35 37 38 41 45 49 51 52 54 55 54 54 55 55 55 56 58 59 60 60 61 61 61 60 60 61 62 63 63 62 61 60 60 59 59 58 58 58 57 56 55 53 52 51 49 49 51 52 51 49 48
29 29 26 23 19 17 16 15 16 17 18 19 20 22 23 25 24 23 23 24 26 28 32 35 36 36 35 36 36 36 35 35 34 34 33 34 35 39 44 48 51 53 54 55 56 56 55 56 56 57 58 59 59 59 60 60 60 60 60 62 63 63 62 61 60 60 59 59 58 58 57 56 55 55 54 53 52 51 50 51 53 52 51 50 49
29 27 23 19 17 15 14 13 12 12 13 15 18 20 21 22 22 22 23 25 26 27 28 31 34 35 34 34 35 34 34 33 32 32 32 32 33 37 43 47 49 52 55 57 58 57 56 56 56 56 57 57 57 57 58 57 57 58 59 60 61 62 61 60 60 59 59 58 57 57 56 55 55 55 55 54 53 52 51 52 53 53 53 52 50
30 27 23 20 18 15 13 11 10 9 9 11 13 15 16 18 19 21 22 25 27 27 27 29 32 33 33 33 33 33 32 31 30 30 30 30 31 35 42 46 48 50 53 55 56 55 55 55 54 54 55 55 55 55 55 55 56 57 59 60 60 61 61 61 61 60 59 58 57 57 56 55 55 56 56 56 56 54 53 53 54 54 53 51 49
35 33 29 25 23 19 14 11 8 5 4 6 8 10 11 13 16 18 19 21 24 25 25 26 27 28 28 28 29 29 30 28 27 27 28 28 30 35 43 49 50 50 52 52 52 51 52 53 53 52 52 52 52 53 53 54 55 57 58 59 60 61 61 61 61 61 59 58 58 57 57 56 56 56 56 56 55 54 53 53 53 53 51 49 47
41 40 36 32 27 23 19 16 13 9 7 4 3 5 8 10 13 14 15 17 19 20 21 21 22 22 22 22 22 24 24 23 23 23 24 25 27 34 42 48 50 50 52 52 51 49 49 50 51 51 50 50 50 51 51 53 54 55 56 57 58 59 59 59 59 59 59 58 57 57 56 56 55 55 55 55 53 52 51 51 51 50 48 46 44
45 44 41 36 32 28 25 23 19 17 16 15 12 10 9 8 9 10 12 13 14 15 16 17 19 20 20 18 17 18 18 19 19 19 21 23 27 33 40 45 47 49 50 50 49 47 46 47 47 48 47 47 48 49 50 50 51 51 52 53 54 54 54 54 54 54 55 55 55 55 54 54 54 54 53 52 51 50 49 49 48 47 45 44 44
47 46 43 39 37 35 33 30 26 24 22 22 20 19 17 16 15 14 13 13 12 12 12 13 14 16 17 17 16 16 17 19 19 19 21 24 28 33 38 41 42 43 43 43 42 42 42 43 44 45 45 44 45 46 47 47 48 48 49 49 49 49 49 49 49 49 49 50 51 51 51 51 51 50 49 48 47 47 47 46 45 44 45 46 47
50 49 47 44 43 42 39 36 34 33 31 29 26 25 24 24 22 21 20 20 19 18 17 16 15 13 13 14 15 16 18 19 19 20 21 24 29 34 36 35 36 37 37 36 37 37 37 36 38 40 41 41 42 42 43 43 44 44 44 45 45 44 44 44 44 44 45 45 46 47 47 47 47 45 45 45 45 44 44 43 44 45 46 46 46
52 51 49 47 45 44 43 43 42 40 38 36 33 32 31 30 28 27 26 25 25 24 22 21 21 18 15 15 17 18 19 19 20 21 24 27 30 32 31 29 29 30 31 32 33 33 32 31 31 32 34 35 37 37 38 38 38 38 38 38 38 38 39 39 40 40 41 41 42 43 43 43 43 43 43 44 43 43 43 43 44 45 45 45 45
52 52 51 49 47 46 47 47 45 43 41 40 39 37 35 34 33 33 32 31 30 27 26 25 23 21 20 18 18 19 21 22 22 22 24 25 26 25 23 22 22 23 24 26 28 28 28 26 26 26 28 29 30 31 32 32 32 32 32 33 33 33 34 35 36 36 37 38 39 40 40 41 41 41 41 41 41 43 44 45 46 46 45 45 45
50 51 51 51 50 49 49 47 46 45 45 44 43 41 39 37 37 37 36 36 34 32 30 30 27 25 24 22 19 21 23 24 23 22 22 22 21 20 18 17 18 18 19 20 21 21 22 23 22 23 23 24 25 26 27 28 28 29 29 30 31 31 32 33 34 35 36 37 38 38 38 38 38 38 39 41 42 43 44 44 45 45 44 44 44
46 47 48 49 50 50 49 48 48 48 47 45 44 43 41 41 41 40 40 40 39 37 37 36 34 30 29 26 24 25 26 26 24 23 21 20 19 18 17 16 15 15 16 16 16 16 16 17 18 19 20 20 21 21 22 23 24 25 26 27 28 29 31 32 33 34 35 36 36 37 37 38 40 41 42 43 42 42 42 42 42 42 42 41 41
43 44 45 46 47 48 48 48 48 47 46 46 46 45 44 44 45 44 43 42 42 41 41 40 38 36 34 32 31 31 30 28 27 25 23 21 19 17 16 15 14 14 13 14 15 15 15 15 17 18 19 19 20 21 21 22 23 24 25 26 27 28 30 31 32 33 34 36 38 39 40 41 41 41 40 38 38 38 38 38 38 38 38 38 37
40 42 43 43 44 44 45 46 46 46 46 47 48 47 46 45 46 45 44 43 42 42 42 41 40 39 38 37 36 35 33 31 29 28 27 24 22 20 18 16 15 14 14 14 14 14 15 15 16 17 18 19 21 21 22 23 24 25 26 26 28 29 31 32 33 34 35 36 36 36 35 34 33 32 32 32 32 33 33 33 33 33 33 33 34
37 39 40 41 41 41 42 43 43 43 44 45 46 46 45 45 45 44 43 42 41 41 41 41 40 40 39 38 38 37 35 33 32 31 29 27 26 23 21 19 18 17 17 16 15 15 15 15 15 16 17 18 20 21 22 23 24 25 26 27 28 29 30 31 31 31 31 30 29 28 27 27 27 27 28 28 29 29 29 29 29 29 29 29 29
37 38 38 38 38 39 40 41 41 41 41 42 42 41 41 42 42 42 42 41 40 39 39 39 38 37 36 36 36 35 34 33 32 31 30 28 27 25 23 22 20 20 19 18 17 16 15 15 14 14 15 15 16 17 18 19 21 22 22 23 24 24 24 25 25 25 25 24 24 24 24 24 24 24 24 24 24 24 24 24 24 25 25 26 27
37 37 38 38 38 38 39 39 39 39 39 39 39 38 38 38 38 38 38 38 38 38 37 37 36 35 34 33 32 31 30 30 29 29 28 27 25 24 23 22 21 19 18 18 17 16 16 15 13 13 13 12 12 12 12 13 14 15 15 16 17 17 18 18 19 19 20 21 21 21 21 21 20 20 20 20 20 21 21 22 22 23 24 25 26
35 36 37 37 37 37 37 37 37 38 37 37 37 37 37 37 37 36 36 35 35 35 35 34 34 33 32 31 30 29 29 28 27 26 25 24 23 22 20 19 18 17 17 16 16 15 14 14 13 12 11 10 10 9 9 8 9 9 9 10 11 11 12 13 13 14 15 16 16 17 17 18 18 18 19 19 20 21 21 22 22 23 24 24 25
34 34 35 35 35 35 35 36 36 36 36 36 36 36 36 36 36 35 35 34 34 33 33 32 31 31 30 29 28 28 27 27 26 24 23 23 21 20 19 18 17 16 16 15 14 13 12 11 10 9 9 8 7 6 5 5 5 5 5 6 7 8 9 10 11 12 13 14 15 16 17 17 18 19 19 20 20 21 21 22 22 23 24 24 25
Wind_Direction
303 311 315 318 321 323 323 323 325 326 322 304 288 296 289 248 219 213 213 209 211 215 214 213 213 213 214 213 212 213 212 211 210 210 212 214 215 215 212 208 206 208 210 210 206 205 207 207 207 206 204 204 204 206 208 206 203 206 210 212 213 216 220 219 209 197 193 198 203 202 201 200 196 195 197 196 195 196 198 199 200 200 199 198 197
298 306 310 313 317 321 321 321 321 323 325 318 298 287 298 272 231 218 218 211 208 210 211 212 213 212 214 215 213 213 213 212 210 208 209 211 213 212 210 206 205 205 207 208 205 203 205 206 205 204 202 202 202 203 205 202 197 198 204 208 212 214 214 213 214 210 201 196 197 199 198 197 196 194 196 198 198 197 198 198 198 199 199 199 200
295 301 306 309 314 318 319 318 318 320 322 324 314 292 294 288 239 218 219 217 208 207 209 211 212 211 211 214 214 214 215 214 212 209 206 208 209 210 207 204 204 204 203 203 201 200 202 203 203 203 202 201 201 202 203 204 201 199 200 204 208 210 212 216 220 218 209 199 195 197 196 195 196 196 195 198 200 200 199 198 197 198 198 200 201
292 298 301 304 310 314 316 316 315 317 318 320 321 305 290 297 259 220 213 216 212 208 207 209 212 211 209 210 212 216 219 218 215 212 208 207 208 207 204 203 203 203 201 201 201 201 202 202 202 203 203 202 201 201 202 204 206 205 204 205 208 210 213 217 221 221 215 205 197 195 196 195 195 196 196 196 198 200 199 198 198 199 199 200 202
291 296 296 299 306 310 313 314 311 313 315 315 319 314 295 298 280 231 211 210 212 209 207 207 209 212 213 212 212 214 219 220 219 215 211 208 208 206 202 202 202 200 199 200 202 203 204 206 207 205 204 204 202 201 202 204 205 206 208 209 209 210 212 215 219 221 219 213 202 195 195 195 194 195 197 197 196 196 196 197 199 199 200 202 202
291 294 292 293 302 306 310 313 310 309 311 311 314 316 304 297 289 246 218 212 210 207 206 207 209 214 215 214 214 215 215 216 219 219 214 210 208 206 203 202 200 199 200 201 203 204 205 207 210 209 206 206 205 203 202 203 205 207 210 211 210 210 211 214 217 218 218 217 208 199 196 196 195 194 196 198 198 197 195 195 198 201 202 202 200
293 291 287 289 297 302 305 311 310 305 305 307 309 313 309 299 292 257 227 219 214 206 205 209 211 212 212 211 215 219 216 213 213 217 217 212 208 206 203 202 202 201 201 202 204 205 204 206 209 209 209 209 209 207 205 204 205 207 209 210 209 210 211 213 215 214 213 212 208 202 197 196 197 196 196 196 198 200 200 198 198 200 200 199 198
293 286 283 287 292 297 301 308 309 301 299 304 305 309 310 301 291 265 230 219 218 211 207 209 207 207 209 211 216 221 220 216 212 212 215 214 210 207 205 204 204 203 202 202 204 203 203 204 206 208 211 212 212 211 209 206 205 205 207 209 209 210 212 213 213 211 209 209 207 203 197 195 196 197 197 196 197 200 203 204 203 200 197 196 196
293 285 284 288 290 293 298 304 304 296 293 300 303 304 309 303 289 273 235 217 217 217 212 210 208 207 210 213 217 218 217 216 215 216 217 216 211 209 208 207 206 205 203 202 203 204 203 203 204 208 213 216 215 214 212 211 209 207 207 207 208 210 211 212 212 208 205 206 205 202 197 196 196 197 198 200 201 201 202 204 205 201 196 194 194
287 285 285 287 287 289 295 299 297 289 287 296 301 301 305 305 290 278 248 217 212 216 214 211 212 213 211 211 214 215 213 213 218 223 224 222 217 212 210 210 209 207 204 202 204 205 203 204 205 208 213 217 217 215 213 214 213 212 210 208 207 209 210 211 210 207 204 204 204 202 199 198 199 200 201 203 203 203 201 201 201 199 195 193 193
285 284 283 283 284 286 291 293 287 281 284 293 299 298 301 305 293 274 255 223 209 211 214 212 213 214 211 208 208 208 209 213 220 225 225 225 224 218 212 211 212 211 207 205 205 205 204 206 207 206 208 213 215 215 214 214 214 215 214 212 211 211 211 211 210 207 205 204 204 204 204 203 203 202 203 203 203 203 203 201 199 198 196 195 194
285 282 280 279 281 284 287 284 274 274 284 292 297 295 296 302 293 268 252 230 210 207 211 212 212 212 211 209 209 208 209 212 217 223 223 224 225 223 216 212 212 213 211 208 208 208 206 206 208 207 206 209 212 215 215 214 214 215 215 216 217 217 217 218 215 209 206 205 204 206 207 208 206 204 204 205 205 203 203 202 201 201 201 200 200
287 285 284 282 281 279 276 269 267 276 286 291 293 291 293 299 291 264 246 234 218 209 210 212 212 213 212 212 214 216 216 214 213 215 219 221 224 224 219 214 212 213 213 212 212 213 210 209 209 208 206 207 211 215 216 214 213 214 215 216 218 220 221 223 223 217 211 207 206 206 207 208 208 207 208 207 206 203 202 202 203 204 204 204 203
287 286 286 283 277 269 264 265 272 282 287 287 289 287 288 297 290 261 242 233 223 214 211 210 210 213 215 217 216 215 216 217 218 218 217 217 220 223 223 220 216 213 212 212 214 216 215 213 211 207 205 206 210 214 216 215 212 212 213 214 216 219 220 221 221 218 213 212 211 208 206 207 209 210 211 210 208 207 205 204 205 204 203 203 202
286 281 280 278 273 267 267 272 278 283 283 282 285 283 284 296 288 257 241 235 226 220 216 213 211 211 212 215 217 216 215 215 217 222 221 218 217 220 222 222 219 215 213 214 217 218 218 217 214 209 206 207 208 212 216 216 212 211 212 213 215 217 219 219 217 214 212 214 214 212 209 208 209 212 214 212 210 210 209 208 206 203 202 201 201
292 285 281 279 277 272 272 275 276 276 277 278 281 279 283 295 286 251 240 236 226 222 221 219 218 218 215 214 215 218 220 218 214 216 219 220 220 220 220 220 218 216 215 216 218 220 220 219 216 212 210 209 208 210 214 216 214 211 211 212 214 217 218 218 216 213 212 213 214 214 213 211 211 212 215 214 212 209 208 207 205 202 201 200 201
293 288 282 278 278 275 273 274 271 270 273 276 277 277 282 293 282 247 238 234 224 220 221 220 219 221 221 220 218 218 222 224 220 218 217 217 221 224 222 219 217 216 216 216 219 221 221 221 220 216 213 211 209 208 211 215 216 213 211 211 213 216 217 216 214 213 213 213 214 215 216 215 214 213 214 215 214 211 208 206 205 203 202 201 202
295 292 283 274 272 272 271 270 267 267 271 273 275 275 280 290 277 243 233 231 223 219 221 220 220 221 221 223 224 221 220 220 221 223 221 219 219 223 223 220 217 216 215 216 219 221 222 223 222 219 216 213 210 208 211 216 217 214 212 211 213 215 215 213 211 210 211 212 215 217 217 216 216 215 213 213 214 214 212 210 209 206 203 204 205
297 295 288 276 269 270 269 265 264 267 270 270 273 273 277 286 275 241 231 231 224 220 220 219 219 222 222 223 225 225 223 219 217 219 222 221 220 220 219 218 216 216 218 219 220 220 221 223 223 220 218 216 212 211 213 217 219 217 214 213 214 216 215 212 210 209 209 210 212 215 216 215 215 215 213 212 213 214 214 214 213 209 207 208 207
301 298 293 279 267 265 264 260 261 266 267 268 270 269 273 283 271 238 230 231 224 220 221 221 221 222 223 224 224 225 226 224 220 218 219 220 220 219 217 215 215 217 221 223 222 220 221 223 222 219 218 217 215 214 214 217 219 219 216 215 216 218 217 214 211 210 209 209 210 212 214 214 214 214 213 212 212 212 212 213 214 213 213 212 209
307 302 296 283 268 265 265 262 263 265 264 264 268 266 270 278 266 238 231 230 224 220 221 221 222 223 223 224 225 224 224 225 225 223 220 218 218 218 217 217 218 220 222 223 223 223 224 225 222 218 217 217 216 215 216 217 219 221 220 219 220 221 220 216 213 211 210 210 210 211 212 213 214 214 213 212 211 210 210 211 211 213 215 215 213
314 308 299 284 272 270 268 264 261 261 260 262 265 264 267 274 263 238 231 230 224 220 220 220 220 221 223 224 225 225 224 224 225 225 223 220 218 218 219 221 222 223 224 222 221 223 225 226 224 219 217 216 216 216 217 218 219 223 223 222 222 223 223 220 215 212 211 211 211 212 212 212 213 213 212 212 211 209 209 209 209 210 213 216 218
319 314 305 286 273 268 265 259 256 257 258 259 261 261 265 271 261 236 229 230 224 219 219 220 219 220 221 222 224 225 224 224 224 225 225 224 223 222 222 223 224 225 225 224 223 223 223 224 223 219 217 219 220 219 219 219 220 224 224 221 221 223 223 221 217 213 211 211 212 212 212 212 212 212 212 212 210 209 209 209 210 211 211 213 214
319 316 312 300 285 274 268 263 259 258 257 256 257 260 263 266 259 236 226 228 224 219 218 219 218 218 219 220 222 223 223 223 223 224 225 225 225 224 223 223 224 226 226 227 228 228 227 227 225 223 223 226 224 221 219 219 221 224 223 220 221 223 222 220 217 213 211 211 211 212 212 212 212 212 213 212 211 210 209 209 210 211 212 213 214
317 313 312 308 302 293 283 274 266 260 257 255 257 261 262 262 258 239 227 227 223 219 217 217 217 218 218 219 221 222 222 222 222 222 222 224 225 224 221 221 224 227 228 229 231 232 232 233 232 229 228 227 224 220 218 219 222 224 222 220 221 222 221 218 216 214 212 211 212 212 213 213 213 213 214 214 213 211 209 209 210 211 212 213 215
314 306 303 302 301 299 294 287 277 269 263 260 260 261 260 261 259 242 229 227 224 219 217 216 216 216 217 218 220 221 221 221 221 221 220 220 222 223 223 224 227 229 229 229 229 230 230 231 231 230 228 227 223 220 217 217 220 221 220 219 220 221 219 217 215 214 213 213 213 213 214 214 214 215 215 215 214 212 210 210 210 211 212 213 215
316 304 294 290 288 288 287 284 279 274 268 263 262 262 259 258 258 247 233 227 224 220 217 216 215 215 215 216 218 220 221 221 221 221 220 219 219 221 223 224 224 223 222 221 222 224 226 228 231 232 231 228 224 221 218 216 215 216 216 217 220 221 219 217 217 216 215 214 214 214 214 214 215 215 216 216 215 214 213 212 212 212 212 213 215
320 308 297 287 279 276 275 274 273 270 266 262 262 263 259 256 256 250 237 229 225 221 217 216 216 216 215 214 215 217 219 221 222 221 221 219 217 217 217 217 216 215 215 216 218 221 224 227 228 227 226 223 220 217 215 214 213 213 214 216 218 219 218 218 218 217 216 216 215 214 214 215 215 217 217 217 217 216 215 214 214 214 215 214 215
322 315 306 295 282 274 270 268 268 266 264 262 262 264 262 259 258 252 240 232 229 226 223 220 219 219 218 217 218 218 219 221 222 223 223 222 220 218 215 214 214 214 216 218 219 219 220 221 221 219 217 216 214 212 210 210 210 210 211 214 215 216 217 217 217 217 217 216 215 215 215 216 217 218 219 219 218 218 217 216 215 215 216 217 219
329 325 320 307 293 285 277 270 266 265 263 262 262 264 264 262 258 250 241 235 231 230 230 229 227 225 222 222 224 225 226 227 226 225 225 224 223 222 220 217 216 216 216 217 217 217 216 216 216 216 214 211 210 209 207 206 206 207 209 212 215 216 216 216 217 217 217 217 217 218 218 218 218 219 220 220 220 221 220 219 217 217 218 219 221
344 341 334 320 306 297 288 278 271 266 262 260 260 261 261 261 255 245 240 238 234 231 231 232 233 232 229 227 227 228 230 233 234 232 229 225 223 223 222 219 217 215 214 212 212 213 213 212 211 211 210 208 207 207 206 207 207 208 209 212 214 215 216 215 215 216 216 217 218 219 220 220 221 222 223 223 223 224 223 220 218 218 219 222 224
360 355 345 333 319 305 295 286 276 265 259 258 258 256 255 253 249 241 236 237 237 234 230 228 230 232 233 233 232 231 231 232 233 234 231 227 224 222 221 218 215 214 212 211 210 211 212 211 209 208 207 206 206 207 207 208 209 209 210 210 212 214 215 215 215 216 217 218 218 219 220 222 223 224 226 226 226 227 225 222 220 221 221 223 225
12 7 357 345 331 317 303 291 277 265 257 255 254 252 248 245 242 238 233 230 232 234 231 228 227 228 229 231 233 233 234 233 233 233 231 228 224 222 219 217 214 212 210 209 210 210 209 209 209 208 207 207 207 207 208 209 210 211 211 212 213 214 215 215 216 217 218 219 220 221 222 223 225 226 227 228 229 229 227 225 223 223 223 224 226
18 16 9 2 353 337 323 310 294 276 264 257 253 249 245 241 238 235 229 221 219 222 224 225 225 225 226 226 227 229 231 232 233 233 230 226 223 219 216 213 211 211 211 211 210 209 208 208 208 209 209 208 207 208 209 210 212 212 213 214 215 215 215 215 216 218 219 220 221 222 224 225 227 227 228 228 229 229 228 226 225 224 224 226 227
23 24 21 20 21 11 352 338 324 302 277 258 249 244 242 239 235 232 226 218 212 212 214 216 217 219 221 221 222 224 225 226 229 231 229 225 220 215 210 205 203 205 208 209 209 208 208 208 208 209 210 211 211 212 213 214 214 214 214 214 214 215 215 216 217 218 219 220 222 224 225 227 228 228 228 228 228 228 226 226 226 226 227 228 229
29 33 32 34 38 37 34 29 17 346 294 258 244 237 234 230 226 224 220 215 211 210 210 211 212 214 216 217 218 219 220 221 224 226 226 224 219 211 206 203 201 202 204 206 207 208 209 210 211 212 213 213 214 215 216 216 216 215 214 213 214 215 216 217 217 218 219 220 222 223 224 225 227 227 227 228 228 228 227 226 226 227 228 229 230
36 39 40 42 44 47 51 57 63 71 83 102 168 201 207 210 210 209 206 204 203 204 205 206 207 207 208 211 214 215 215 216 218 221 222 221 218 213 209 206 203 203 205 206 207 208 210 212 214 215 216 216 216 216 216 215 214 213 212 212 213 214 215 216 217 218 219 220 221 223 224 225 226 226 227 227 227 226 226 226 226 227 227 229 231
40 43 45 47 50 53 57 60 66 75 83 90 98 112 132 151 168 179 184 187 190 192 194 196 198 198 197 197 200 205 206 204 205 209 211 211 211 212 210 208 206 205 206 207 207 208 211 213 215 216 217 217 216 216 214 213 211 211 210 210 211 212 214 214 215 216 218 219 221 223 224 224 225 225 225 226 226 225 225 226 226 227 228 231 235
39 43 46 50 53 56 59 62 66 70 75 81 88 95 101 107 114 124 133 139 145 153 161 170 179 187 191 188 185 189 193 191 189 192 197 201 204 206 205 205 205 205 206 206 206 207 210 213 215 215 215 215 214 213 212 211 210 210 210 210 210 211 213 215 216 217 218 220 222 223 224 225 225 225 225 225 226 226 225 226 228 231 235 238 240
40 43 45 48 53 57 60 63 66 69 72 76 82 88 92 96 100 105 110 114 116 118 123 128 132 144 166 178 178 180 185 186 185 185 187 192 197 200 201 203 204 205 204 204 204 206 209 211 212 213 214 214 214 214 213 213 212 212 213 215 216 217 219 221 222 223 224 225 227 228 228 228 227 226 225 225 225 225 227 230 235 238 240 242 242
42 44 45 47 51 55 59 62 65 68 71 74 79 83 87 91 95 98 101 104 105 107 111 112 112 117 134 155 166 170 171 170 169 171 175 180 187 192 196 200 203 204 203 203 203 205 207 208 208 209 209 211 212 214 215 216 217 218 219 220 222 224 226 227 228 229 229 230 232 232 232 231 229 227 226 226 227 230 234 238 240 241 241 242 242
43 45 47 48 50 53 57 60 63 67 70 72 76 79 84 88 90 91 93 94 95 98 101 103 107 113 120 134 152 159 155 152 154 157 160 166 173 179 183 188 192 196 199 201 203 206 208 208 207 208 208 209 211 213 215 218 220 223 225 227 229 231 231 232 232 233 233 234 235 235 233 231 229 229 230 232 235 238 240 240 240 240 241 242 243
46 48 50 51 53 55 58 59 61 64 66 69 72 75 79 83 85 86 87 87 87 91 92 93 96 104 109 118 136 145 140 138 142 144 143 146 152 157 161 169 176 181 187 191 196 202 206 208 207 207 208 209 211 213 215 219 222 225 229 232 234 235 235 234 234 234 235 235 234 232 230 229 231 234 237 239 240 240 240 240 240 240 241 242 242
47 49 51 53 55 57 59 60 62 64 65 66 69 71 74 77 79 80 82 83 83 86 88 88 91 95 100 107 118 123 121 122 127 129 129 131 135 137 141 147 156 166 175 179 182 188 196 202 205 207 209 210 212 214 216 218 222 225 229 231 233 234 234 235 235 235 234 232 230 228 229 232 236 239 240 239 239 238 237 238 239 239 240 241 242
47 50 52 53 55 57 59 61 63 64 65 66 67 68 71 73 74 76 78 80 82 83 85 86 88 89 91 95 99 100 101 104 107 109 110 113 117 121 127 134 142 152 161 166 172 179 184 187 193 200 202 202 204 207 210 213 216 219 221 224 227 228 229 230 230 229 227 227 227 229 232 234 236 237 237 237 237 237 237 238 240 241 242 243 243
47 50 52 54 55 57 59 60 62 63 65 66 67 68 69 71 73 73 74 77 79 81 81 82 83 84 85 87 89 89 90 92 94 94 95 97 100 104 110 118 125 133 140 146 156 166 172 175 181 188 190 190 193 197 200 203 207 209 212 214 216 219 221 221 222 223 224 227 229 231 233 234 235 236 237 237 238 238 239 240 241 241 242 243 244
48 51 53 54 56 57 59 60 61 62 64 66 67 68 69 70 72 73 73 74 76 78 78 79 79 79 80 82 83 84 85 86 87 89 89 90 92 95 100 106 112 118 124 131 139 148 154 160 168 175 178 181 185 189 192 195 198 201 204 207 209 213 216 218 220 222 224 226 228 229 230 231 232 233 234 235 235 236 237 237 239 240 241 242 244
48 51 53 54 55 56 57 58 59 60 62 64 65 67 68 68 69 71 71 71 73 75 76 77 77 77 77 77 78 79 81 82 83 85 85 86 87 89 92 96 101 106 112 118 122 127 132 138 147 154 160 168 175 180 185 190 193 197 201 203 206 210 213 215 218 220 221 222 224 225 226 226 226 227 228 230 231 234 236 239 241 244 245 246 247
48 50 52 53 54 55 55 56 57 58 59 61 62 64 65 66 66 67 68 68 69 71 72 73 74 75 76 77 77 78 79 79 80 80 81 81 82 83 85 87 91 95 99 103 105 107 110 113 119 126 133 141 150 158 166 175 181 187 192 195 199 203 208 210 214 217 218 220 222 222 222 223 224 225 228 231 235 239 242 245 247 248 249 249 249
47 49 51 53 54 56 56 57 58 58 59 59 60 61 62 63 64 64 64 65 66 66 67 68 69 70 71 72 73 73 74 75 75 76 78 78 79 80 82 83 85 87 88 90 92 94 95 97 101 104 109 114 121 129 139 149 157 165 175 183 189 196 203 207 211 214 216 218 221 222 224 227 230 233 237 241 244 247 249 250 251 251 251 251 251
45 48 49 51 53 54 56 57 58 58 58 59 59 59 60 61 61 61 62 63 63 63 64 64 64 65 65 66 66 67 68 69 69 70 71 72 73 74 75 77 78 79 81 82 84 85 87 90 92 94 97 102 109 117 128 142 154 167 183 198 208 215 219 221 223 226 228 230 232 235 238 240 243 246 249 251 253 254 254 254 254 253 252 251 251